Flag for Finland Weather past 2 weeks in Helsinki, Finland

Now
55 °F

Passing clouds.


Feels Like: 53 °F
Forecast: 47 / 54 °F
Wind: 10 mph from East

Location: Helsinki Malmi Airport

Current Time: May 30, 2015 at 3:58:48 PM

Latest Report: May 30, 2015 at 3:20 PM


Visibility: N/A

Pressure: 29.86 "Hg

Humidity: 55%

Dew point: 39 °F

Location of HelsinkiLocation

Historic Weather in Helsinki — Graph

°F

Helsinki temperature yesterday

Maximum temperature yesterday: 57 °F (at 9:50 AM)
Minimum temperature yesterday: 41 °F (at 2:20 AM)
Average temperature yesterday: 51 °F

Past Weeks' High & Low Weather Summary

 TemperatureHumidityPressure
High63 °F (May 26, 1:20 PM)100% (May 15, 11:20 PM)30.12 "Hg (May 15, 11:20 PM)
Low30 °F (May 16, 3:20 AM)34% (May 26, 5:50 PM)29.59 "Hg (May 18, 2:20 AM)
Average50 °F71%29.82 "Hg
* Reported May 15 2:20 PM — May 30 2:20 PM, Helsinki, Weather by CustomWeather, © 2015

Note: Actual official high and low records may vary slightly from our data, if they occured in-between our weather recording intervals... More about our weather records

Advertising

Helsinki weather history for previous 24 hours

 ConditionsComfort  
Time TempWeatherWind HumidityBarometerVisibility
2:20 PM
Sat, May 30
55 °FPassing clouds.12 mph55%29.89 "HgN/A
1:50 PM55 °FPassing clouds.9 mph55%29.89 "HgN/A
1:20 PM57 °FScattered clouds.8 mph41%29.92 "HgN/A
12:50 PM55 °FScattered clouds.9 mph55%29.92 "HgN/A
12:20 PM55 °FScattered clouds.8 mph59%29.92 "HgN/A
11:50 AM54 °FScattered clouds.9 mph67%29.92 "HgN/A
11:20 AM54 °FScattered clouds.7 mph72%29.92 "HgN/A
10:50 AM54 °FScattered clouds.8 mph67%29.92 "HgN/A
10:20 AM54 °FScattered clouds.8 mph67%29.92 "HgN/A
9:50 AM52 °FScattered clouds.7 mph72%29.92 "HgN/A
9:20 AM52 °FScattered clouds.7 mph77%29.92 "HgN/A
8:50 AM54 °FScattered clouds.6 mph72%29.92 "HgN/A
8:20 AM50 °FScattered clouds.8 mph82%29.92 "HgN/A
7:50 AM50 °FPassing clouds.7 mph76%29.92 "HgN/A
7:20 AM50 °FSunny.3 mph76%29.92 "Hg10 mi
6:50 AM48 °FPassing clouds.5 mph87%29.92 "HgN/A
6:20 AM46 °FSunny.6 mph93%29.89 "Hg10 mi
5:50 AM45 °FSunny.3 mph100%29.89 "Hg10 mi
5:20 AM39 °FSunny.1 mph100%29.89 "Hg10 mi
4:50 AM39 °FClear.No wind93%29.89 "Hg10 mi
4:20 AM39 °FClear.No wind93%29.89 "Hg10 mi
3:50 AM39 °FPassing clouds.No wind100%29.89 "Hg5 mi
3:20 AM37 °FFog.1 mph100%29.89 "Hg1 mi
2:50 AM39 °FClear.No wind93%29.89 "Hg10 mi
2:20 AM39 °FClear.No wind100%29.89 "Hg10 mi
1:50 AM41 °FClear.No wind93%29.89 "Hg10 mi
1:20 AM45 °FClear.1 mph81%29.89 "Hg10 mi
12:50 AM46 °FClear.3 mph82%29.89 "Hg10 mi
12:20 AM46 °FClear.2 mph82%29.86 "Hg10 mi
11:50 PM
Fri, May 29
48 °FPassing clouds.5 mph71%29.86 "HgN/A
11:20 PM48 °FPassing clouds.5 mph71%29.86 "HgN/A
10:50 PM48 °FPassing clouds.7 mph76%29.86 "HgN/A
10:20 PM50 °FSunny.6 mph71%29.83 "Hg10 mi
9:50 PM50 °FPassing clouds.6 mph71%29.83 "HgN/A
9:20 PM52 °FPassing clouds.7 mph67%29.83 "HgN/A
8:50 PM54 °FPassing clouds.7 mph63%29.83 "HgN/A
8:20 PM54 °FPassing clouds.8 mph63%29.80 "HgN/A
7:50 PM54 °FPassing clouds.9 mph72%29.80 "HgN/A
7:20 PM54 °FPassing clouds.12 mph72%29.80 "HgN/A
6:50 PM54 °FScattered clouds.12 mph72%29.80 "HgN/A
6:20 PM55 °FScattered clouds.9 mph67%29.80 "HgN/A
5:50 PM55 °FBroken clouds.12 mph72%29.80 "HgN/A
5:20 PM55 °FBroken clouds.13 mph72%29.80 "HgN/A
4:50 PM54 °FBroken clouds.13 mph77%29.80 "HgN/A
4:20 PM54 °FBroken clouds.10 mph82%29.80 "HgN/A
3:50 PM52 °FBroken clouds.7 mph88%29.80 "HgN/A
3:20 PM52 °FLight rain. Broken clouds.8 mph88%29.80 "HgN/A
Weather by CustomWeather, © 2015

See weather overviewHow to use our weather pages